Location: Horowhenua
(40.7500°S, 175.3333°E)
Time: 05:37:47
(UTC+00:00)

Cosmos 921 Rocket - Pass Details

Date: 28 January 2023
Orbit: 570 x 629 km, 75.8° (Epoch: 01 April)

Event Time Altitude Azimuth Distance (km) Brightness Sun altitude
Exits shadow 13:58:25 46° 205° (SSW) 864 3.9 -27.7°
Drops below altitude 10° 14:01:55 10° 172° (S) 2,031 6.6 -27.5°
Sets 14:04:13 0° 167° (SSE) 2,939 7.7 -27.3°
